Weather WX

World > North America > United States > Ohio

North Hill, Ohio Regional Weather

Lat: 41.11N, Lon: 81.5W
Wx Zone: OHZ021
Feedback

North Hill, OH Regional Weather

Expires:201906241000;;992711
ASUS41 KCLE 240902
RWRCLE
OHIO REGIONAL WEATHER ROUNDUP
NATIONAL WEATHER SERVICE CLEVELAND, OH
500 AM EDT MON JUN 24 2019

NOTE: "FAIR" INDICATES FEW OR NO CLOUDS BELOW 12,000 FEET WITH NO
SIGNIFICANT WEATHER AND/OR OBSTRUCTIONS TO VISIBILITY.


OHZ009>014-019>023-028>033-038-089-241000-
   NORTHEAST OHIO
  
CITY           SKY/WX    TMP DP  RH WIND       PRES   REMARKS
CLE-HOPKINS    CLOUDY    72  61  68 S9        29.81R                  
CLE-LAKEFRONT  FAIR      73  57  57 S16       29.77S                  
CUY CO. ARPT   FAIR      71  58  63 SE10      29.81S                  
LORAIN-ELYRIA  FAIR      70  57  63 S9        29.79S                  
ASHTABULA      FAIR      66  57  72 SE6       29.84S                  
AKRON-CANTON   CLOUDY    71  61  70 S6        29.83S                  
WOOSTER        FAIR      69  63  81 S9        29.83S                  
MANSFIELD      FAIR      71  66  84 S16G22    29.81F                  
YOUNGSTOWN     CLOUDY    66  54  65 SE8       29.84S                  
$$


SKY/WX - Weather  TMP - Temperature  DP - Dew Point  RH - Relative Humidity
WIND - Wind Direction/Speed PRES - Barometric Pressure VSB - Visibility
WCI - Wind Chill Index E13G22 Wind - East Wind 13 mph/Gusts of 22 mph